When you browse on this site, cookies collect data to enhance your experience and personalize the content and advertising you see.
Visit our Privacy Policy to learn more. By continuing to use the site, you agree to this use of cookies and data.
  • In Hungary
  • List of Countries
  • For 7 days
  • Water Temperature
  • Satellite Maps
  • Weather Map
  • News
  • Weather Widgets
  • user-avatar
    Login

    Hourly Weather Kweda

    Today, 16 February, Saturday

    Time Temperature Precipitation Wind Pressure Humidity
    00:00 +26°C° 0 mm 6 mps 740 mmHg 48%
    01:00 +23°C° 0 mm 5 mps 740 mmHg 53%
    02:00 +21°C° 0 mm 5 mps 740 mmHg 59%
    03:00 +21°C° 0 mm 5 mps 740 mmHg 64%
    04:00 +20°C° 0 mm 5 mps 740 mmHg 69%
    05:00 +19°C° 0 mm 5 mps 740 mmHg 74%
    06:00 +20°C° 0 mm 5 mps 740 mmHg 71%
    07:00 +20°C° 0 mm 5 mps 741 mmHg 68%
    08:00 +21°C° 0 mm 5 mps 741 mmHg 64%
    09:00 +23°C° 0 mm 5 mps 741 mmHg 55%
    10:00 +27°C° 0 mm 5 mps 741 mmHg 45%
    11:00 +29°C° 0 mm 5 mps 741 mmHg 36%
    12:00 +32°C° 0 mm 5 mps 740 mmHg 33%
    13:00 +33°C° 0 mm 5 mps 740 mmHg 29%
    14:00 +35°C° 0 mm 5 mps 739 mmHg 26%
    15:00 +34°C° 0 mm 5 mps 739 mmHg 26%
    16:00 +34°C° 0 mm 5 mps 739 mmHg 26%
    17:00 +34°C° 0 mm 5 mps 739 mmHg 26%
    18:00 +32°C° 0 mm 6 mps 739 mmHg 34%
    19:00 +28°C° 0 mm 7 mps 740 mmHg 42%
    20:00 +26°C° 0 mm 8 mps 740 mmHg 50%
    21:00 +23°C° 0 mm 8 mps 740 mmHg 55%
    22:00 +21°C° 0 mm 8 mps 741 mmHg 60%
    23:00 +20°C° 0 mm 7 mps 741 mmHg 66%

    Tomorrow, 17 February, Sunday

    Time Temperature Precipitation Wind Pressure Humidity
    00:00 +18°C° 0 mm 7 mps 741 mmHg 68%
    01:00 +17°C° 0 mm 6 mps 741 mmHg 70%
    02:00 +16°C° 0 mm 6 mps 741 mmHg 73%
    03:00 +16°C° 0 mm 6 mps 741 mmHg 74%
    04:00 +15°C° 0 mm 6 mps 741 mmHg 74%
    05:00 +14°C° 0 mm 6 mps 741 mmHg 75%
    06:00 +15°C° 0 mm 6 mps 741 mmHg 72%
    07:00 +15°C° 0 mm 6 mps 741 mmHg 69%
    08:00 +16°C° 0 mm 6 mps 741 mmHg 66%
    09:00 +19°C° 0 mm 6 mps 741 mmHg 56%
    10:00 +21°C° 0 mm 5 mps 741 mmHg 46%
    11:00 +25°C° 0 mm 5 mps 740 mmHg 37%
    12:00 +27°C° 0 mm 5 mps 740 mmHg 31%
    13:00 +28°C° 0 mm 5 mps 739 mmHg 25%
    14:00 +30°C° 0 mm 4 mps 739 mmHg 19%
    15:00 +30°C° 0 mm 4 mps 738 mmHg 18%
    16:00 +32°C° 0 mm 4 mps 738 mmHg 17%
    17:00 +32°C° 0 mm 5 mps 738 mmHg 15%
    18:00 +29°C° 0 mm 5 mps 738 mmHg 19%
    19:00 +28°C° 0 mm 5 mps 738 mmHg 22%
    20:00 +26°C° 0 mm 6 mps 739 mmHg 26%
    21:00 +23°C° 0 mm 6 mps 739 mmHg 36%
    22:00 +21°C° 0 mm 6 mps 739 mmHg 45%
    23:00 +18°C° 0 mm 7 mps 739 mmHg 55%

    Day after tomorrow, 18 February, Monday

    Time Temperature Precipitation Wind Pressure Humidity
    00:00 +17°C° 0 mm 6 mps 739 mmHg 60%
    01:00 +16°C° 0 mm 6 mps 739 mmHg 64%
    02:00 +15°C° 0 mm 6 mps 738 mmHg 69%
    03:00 +15°C° 0 mm 5 mps 738 mmHg 70%
    04:00 +14°C° 0 mm 5 mps 738 mmHg 72%
    05:00 +14°C° 0 mm 5 mps 739 mmHg 73%
    06:00 +15°C° 0 mm 5 mps 739 mmHg 70%
    07:00 +16°C° 0 mm 5 mps 739 mmHg 67%
    08:00 +17°C° 0 mm 5 mps 739 mmHg 64%
    09:00 +20°C° 0 mm 5 mps 739 mmHg 55%
    10:00 +23°C° 0 mm 5 mps 739 mmHg 45%
    11:00 +27°C° 0 mm 4 mps 739 mmHg 36%
    12:00 +29°C° 0 mm 4 mps 738 mmHg 32%
    13:00 +31°C° 0 mm 3 mps 738 mmHg 28%
    14:00 +33°C° 0 mm 3 mps 737 mmHg 25%
    15:00 +34°C° 0 mm 2 mps 737 mmHg 24%
    16:00 +34°C° 0 mm 2 mps 736 mmHg 23%
    17:00 +34°C° 0 mm 1 mps 736 mmHg 22%
    18:00 +32°C° 0 mm 2 mps 736 mmHg 23%
    19:00 +31°C° 0 mm 3 mps 736 mmHg 25%
    20:00 +29°C° 0 mm 3 mps 736 mmHg 27%
    21:00 +28°C° 0 mm 5 mps 736 mmHg 32%
    22:00 +26°C° 0 mm 6 mps 737 mmHg 36%
    23:00 +23°C° 0 mm 8 mps 737 mmHg 40%

    19 February, Tuesday

    Time Temperature Precipitation Wind Pressure Humidity
    00:00 +22°C° 0 mm 7 mps 736 mmHg 45%
    01:00 +21°C° 0 mm 6 mps 736 mmHg 49%
    02:00 +21°C° 0 mm 6 mps 736 mmHg 54%
    03:00 +20°C° 0 mm 5 mps 736 mmHg 55%
    04:00 +20°C° 0 mm 5 mps 736 mmHg 57%
    05:00 +19°C° 0 mm 4 mps 736 mmHg 59%
    06:00 +21°C° 0 mm 4 mps 736 mmHg 53%
    07:00 +22°C° 0 mm 4 mps 736 mmHg 48%
    08:00 +23°C° 0 mm 4 mps 737 mmHg 43%
    09:00 +28°C° 0 mm 4 mps 737 mmHg 35%
    10:00 +32°C° 0 mm 4 mps 736 mmHg 27%
    11:00 +36°C° 0 mm 4 mps 736 mmHg 19%
    12:00 +37°C° 0.1 mm 4 mps 735 mmHg 19%
    13:00 +38°C° 0.1 mm 4 mps 735 mmHg 18%
    14:00 +38°C° 0.1 mm 4 mps 734 mmHg 18%
    15:00 +39°C° 0 mm 3 mps 733 mmHg 18%
    16:00 +39°C° 0 mm 2 mps 733 mmHg 17%
    17:00 +39°C° 0 mm 1 mps 733 mmHg 17%
    18:00 +37°C° 0 mm 3 mps 733 mmHg 20%
    19:00 +35°C° 0 mm 5 mps 734 mmHg 23%
    20:00 +34°C° 0 mm 7 mps 734 mmHg 26%
    21:00 +30°C° 0 mm 7 mps 735 mmHg 34%
    22:00 +28°C° 0 mm 7 mps 735 mmHg 43%
    23:00 +24°C° 0 mm 7 mps 735 mmHg 51%

    20 February, Wednesday

    Time Temperature Precipitation Wind Pressure Humidity
    00:00 +24°C° 0 mm 7 mps 735 mmHg 54%
    01:00 +23°C° 0 mm 7 mps 735 mmHg 58%
    02:00 +22°C° 0 mm 7 mps 735 mmHg 61%
    03:00 +22°C° 0 mm 6 mps 735 mmHg 62%
    04:00 +22°C° 0 mm 6 mps 735 mmHg 63%
    05:00 +21°C° 0 mm 5 mps 735 mmHg 64%
    06:00 +22°C° 0 mm 6 mps 735 mmHg 63%
    07:00 +22°C° 0 mm 6 mps 736 mmHg 62%
    08:00 +23°C° 0 mm 6 mps 736 mmHg 61%
    09:00 +26°C° 0 mm 6 mps 736 mmHg 51%
    10:00 +29°C° 0 mm 5 mps 736 mmHg 41%
    11:00 +33°C° 0 mm 5 mps 736 mmHg 31%
    12:00 +34°C° 0 mm 4 mps 735 mmHg 27%
    13:00 +36°C° 0 mm 4 mps 735 mmHg 24%
    14:00 +37°C° 0 mm 4 mps 734 mmHg 20%
    15:00 +38°C° 0 mm 3 mps 734 mmHg 19%
    16:00 +38°C° 0 mm 3 mps 734 mmHg 19%
    17:00 +38°C° 0 mm 3 mps 734 mmHg 18%
    18:00 +36°C° 0 mm 5 mps 734 mmHg 25%
    19:00 +34°C° 0 mm 6 mps 735 mmHg 32%
    20:00 +32°C° 0 mm 8 mps 735 mmHg 39%
    21:00 +29°C° 0 mm 7 mps 735 mmHg 47%
    22:00 +27°C° 0 mm 6 mps 736 mmHg 54%
    23:00 +25°C° 0 mm 5 mps 736 mmHg 61%

    21 February, Thursday

    Time Temperature Precipitation Wind Pressure Humidity
    00:00 +23°C° 0 mm 5 mps 736 mmHg 64%
    01:00 +22°C° 0 mm 4 mps 736 mmHg 66%
    02:00 +22°C° 0 mm 3 mps 735 mmHg 68%
    03:00 +21°C° 0 mm 3 mps 735 mmHg 71%
    04:00 +21°C° 0 mm 3 mps 735 mmHg 73%
    05:00 +21°C° 0 mm 3 mps 735 mmHg 75%
    06:00 +22°C° 0 mm 3 mps 736 mmHg 71%
    07:00 +24°C° 0 mm 3 mps 736 mmHg 66%
    08:00 +25°C° 0 mm 3 mps 736 mmHg 61%
    09:00 +27°C° 0 mm 2 mps 736 mmHg 52%
    10:00 +30°C° 0 mm 2 mps 736 mmHg 42%
    11:00 +33°C° 0 mm 1 mps 736 mmHg 33%
    12:00 +34°C° 0 mm 1 mps 736 mmHg 30%
    13:00 +36°C° 0 mm 2 mps 735 mmHg 27%
    14:00 +37°C° 0 mm 2 mps 735 mmHg 25%
    15:00 +38°C° 0 mm 3 mps 735 mmHg 23%
    16:00 +38°C° 0 mm 3 mps 734 mmHg 21%
    17:00 +38°C° 0 mm 4 mps 734 mmHg 19%
    18:00 +35°C° 0 mm 5 mps 735 mmHg 26%
    19:00 +33°C° 0 mm 6 mps 735 mmHg 34%
    20:00 +29°C° 0 mm 6 mps 736 mmHg 41%
    21:00 +27°C° 0 mm 6 mps 736 mmHg 49%
    22:00 +25°C° 0 mm 5 mps 736 mmHg 57%
    23:00 +22°C° 0 mm 5 mps 736 mmHg 65%
    Show more